Fredericton, New Brunswick

12:33 PM ADT on October 19, 2017 (GMT -0300)
Greater Fredericton Airport

Weather History for CYFC - September, 2013

Change the Weather History Date:

Monday, September 16, 2013

  Actual Average Record
Temperature  
Mean Temperature 51 °F -  
Max Temperature 58 °F 61 °F 82 °F (2017)
Min Temperature 42 °F 39 °F 34 °F (2014)
Degree Days  
Heating Degree Days 14    
Growing Degree Days 1 (Base 50)    
Moisture  
Dew Point 49 °F    
Average Humidity 89    
Maximum Humidity 100    
Minimum Humidity 60    
Precipitation  
Precipitation 0.02 in 0.12 in - ()
Sea Level Pressure  
Sea Level Pressure 29.98 in    
Wind  
Wind Speed 8 mph ()    
Max Wind Speed 16 mph    
Max Gust Speed 23 mph    
Visibility 8.7 miles    
Events Rain    
Averages and records for this station are not official NWS values.
T = Trace of Precipitation, MM = Missing Value Source: Averaged Metar Reports

Daily Weather History Graph

Daily Weather History Graph

Search for Another Location

Airport or City:

Trip Planner

Search our weather history database for the weather conditions in past years. The results will help you decide how hot, cold, wet, or windy it might be!

Date:

Astronomy

Sep. 16, 2013 Rise Set
Actual Time 7:05 AM ADT 7:35 PM ADT
Civil Twilight 6:35 AM ADT 8:04 PM ADT
Nautical Twilight 6:00 AM ADT 8:40 PM ADT
Astronomical Twilight 5:23 AM ADT 9:16 PM ADT
Moon 5:47 PM ADT (9/16) 3:39 AM ADT (9/16)
Length of Visible Light 13h 29m
Length of Day
12h 29m
Waxing Gibbous, 90% of the Moon is Illuminated
Sep 16
Waxing Gibbous
Sep 19
Full
Sep 27
Last Quarter
Oct 4
New
Oct 11
First Quarter

Hourly Weather History & Observations

Time (ADT) Temp. Windchill Dew Point Humidity Pressure Visibility Wind Dir Wind Speed Gust Speed Precip Events Conditions
12:00 AM 51.8 °F - 50.0 °F 94% 29.96 in 9.0 mi SSW 9.2 mph - N/A   Clear
1:00 AM 51.8 °F - 50.0 °F 94% 29.95 in 9.0 mi North - - N/A   Mostly Cloudy
2:00 AM 53.6 °F - 50.0 °F 88% 29.95 in 9.0 mi SSW 9.2 mph - N/A   Overcast
3:00 AM 54 °F - 52 °F 89% 29.94 in 10 mi SSW 9.2 mph - -   Overcast
3:00 AM 53.6 °F - 51.8 °F 94% 29.94 in 9.0 mi SSW 6.9 mph - N/A   Overcast
4:00 AM 53.6 °F - 51.8 °F 94% 29.91 in 9.0 mi South 6.9 mph - N/A   Overcast
5:00 AM 53.6 °F - 51.8 °F 94% 29.92 in 9.0 mi South 8.1 mph - N/A   Overcast
6:00 AM 53.6 °F - 51.8 °F 94% 29.93 in 9.0 mi South 9.2 mph - N/A   Overcast
7:00 AM 53.6 °F - 51.8 °F 94% 29.94 in 9.0 mi South 6.9 mph - N/A   Overcast
7:27 AM 53.6 °F - 51.8 °F 94% 29.94 in 9.0 mi South 5.8 mph - N/A Rain Light Rain
7:39 AM 53.6 °F - 51.8 °F 94% 29.94 in 9.0 mi SSW 5.8 mph - N/A   Mostly Cloudy
7:59 AM 53.6 °F - 51.8 °F 94% 29.95 in 9.0 mi South 5.8 mph - N/A Rain Light Rain
8:00 AM 53.6 °F - 51.8 °F 94% 29.95 in 9.0 mi South 5.8 mph - N/A Rain Light Rain
9:00 AM 54 °F - 53 °F 95% 29.94 in 10 mi SSW 2.3 mph - - Rain Light Rain
9:00 AM 53.6 °F - 53.6 °F 100% 29.94 in 9.0 mi South 3.5 mph - N/A Rain Light Rain
9:29 AM 55.4 °F - 53.6 °F 94% 29.95 in 9.0 mi Variable 2.3 mph - N/A   Mostly Cloudy
10:00 AM 57.2 °F - 55.4 °F 94% 29.95 in 9.0 mi SW 4.6 mph - N/A   Mostly Cloudy
10:35 AM 57.2 °F - 53.6 °F 88% 29.95 in 9.0 mi SW 5.8 mph - N/A Rain Light Rain
11:00 AM 57.2 °F - 55.4 °F 94% 29.96 in 9.0 mi SW 6.9 mph - N/A Rain Light Rain
12:00 PM 59.0 °F - 55.4 °F 88% 29.96 in 9.0 mi West 3.5 mph - N/A Rain Light Rain
12:26 PM 59.0 °F - 55.4 °F 88% 29.95 in 9.0 mi West 3.5 mph - N/A Rain Light Rain
12:49 PM 57.2 °F - 53.6 °F 88% 29.96 in 9.0 mi NNW 16.1 mph - N/A Rain Light Rain
12:53 PM 55.4 °F - 51.8 °F 88% 29.96 in 7.0 mi NW 11.5 mph 19.6 mph N/A Rain Heavy Rain
12:57 PM 53.6 °F - 51.8 °F 94% 29.96 in 6.0 mi NNW 11.5 mph 19.6 mph N/A Rain Rain
1:00 PM 53.6 °F - 51.8 °F 94% 29.96 in 6.0 mi NNW 12.7 mph - N/A Rain Light Rain
1:16 PM 53.6 °F - 51.8 °F 94% 29.96 in 9.0 mi NNW 13.8 mph - N/A Rain Light Rain
1:31 PM 53.6 °F - 51.8 °F 94% 29.97 in 9.0 mi NW 10.4 mph - N/A Rain Light Rain
1:33 PM 53.6 °F - 51.8 °F 94% 29.96 in 9.0 mi NNW 12.7 mph - N/A Rain Light Rain
1:39 PM 53.6 °F - 51.8 °F 94% 29.96 in 9.0 mi NNW 13.8 mph - N/A Rain Light Rain
1:42 PM 53.6 °F - 51.8 °F 94% 29.97 in 9.0 mi NNW 11.5 mph - N/A   Overcast
1:55 PM 53.6 °F - 51.8 °F 94% 29.97 in 9.0 mi NW 9.2 mph - N/A   Overcast
2:00 PM 53.6 °F - 50.0 °F 88% 29.97 in 9.0 mi NW 10.4 mph - N/A   Overcast
2:46 PM 51.8 °F - 48.2 °F 88% 29.97 in 9.0 mi NW 11.5 mph - N/A Rain Light Rain
3:00 PM 51.8 °F - 48.2 °F 88% 29.98 in 9.0 mi NNW 9.2 mph - N/A Rain Light Rain
3:25 PM 50.0 °F - 48.2 °F 94% 29.98 in 5.0 mi NW 6.9 mph - N/A Rain Light Rain
3:32 PM 50.0 °F - 48.2 °F 94% 29.98 in 6.0 mi NNW 10.4 mph - N/A Rain Light Rain
3:41 PM 50.0 °F - 48.2 °F 94% 29.99 in 9.0 mi NW 6.9 mph - N/A Rain Light Rain
4:00 PM 50.0 °F - 46.4 °F 87% 29.99 in 9.0 mi NW 5.8 mph - N/A Rain Light Rain
4:43 PM 50.0 °F - 46.4 °F 87% 29.99 in 9.0 mi WNW 4.6 mph - N/A   Overcast
5:00 PM 50.0 °F - 46.4 °F 87% 30.00 in 9.0 mi WNW 5.8 mph - N/A   Overcast
6:00 PM 51.8 °F - 44.6 °F 76% 30.01 in 9.0 mi WNW 4.6 mph - N/A   Overcast
7:00 PM 51.8 °F - 42.8 °F 71% 30.02 in 9.0 mi WNW 4.6 mph - N/A   Scattered Clouds
8:00 PM 48.2 °F - 39.2 °F 71% 30.06 in 9.0 mi NW 11.5 mph - N/A   Clear
9:00 PM 46 °F - 37 °F 60% 30.11 in 10 mi NW 13.8 mph - -  
9:00 PM 46.4 °F 40.4 °F 37.4 °F 71% 30.10 in 9.0 mi NW 13.8 mph 23.0 mph N/A   Clear
10:00 PM 44.6 °F 38.8 °F 35.6 °F 71% 30.12 in 9.0 mi NW 11.5 mph - N/A   Clear
11:00 PM 42.8 °F 36.2 °F 33.8 °F 70% 30.14 in 9.0 mi NW 12.7 mph - N/A   Clear